Year,Month,Day,Hour,Minute,Value (Times are PST for temperature in C)
2011,07,28,00,00,14.60
2011,07,28,00,01,14.60
2011,07,28,00,02,14.50
2011,07,28,00,03,14.50
2011,07,28,00,04,14.50
2011,07,28,00,05,14.40
2011,07,28,00,06,14.40
2011,07,28,00,07,14.40
2011,07,28,00,08,14.40
2011,07,28,00,09,14.40
2011,07,28,00,10,14.40
2011,07,28,00,11,14.40
2011,07,28,00,12,14.40
2011,07,28,00,13,14.40
2011,07,28,00,14,14.40
2011,07,28,00,15,14.50
2011,07,28,00,16,14.50
2011,07,28,00,17,14.50
2011,07,28,00,18,14.50
2011,07,28,00,19,14.60
2011,07,28,00,20,14.50
2011,07,28,00,21,14.50
2011,07,28,00,22,14.50
2011,07,28,00,23,14.40
2011,07,28,00,24,14.40
2011,07,28,00,25,14.40
2011,07,28,00,26,14.40
2011,07,28,00,27,14.40
2011,07,28,00,28,14.40
2011,07,28,00,29,14.40
2011,07,28,00,30,14.50
2011,07,28,00,31,14.50
2011,07,28,00,32,14.50
2011,07,28,00,33,14.50
2011,07,28,00,34,14.50
2011,07,28,00,35,14.50
2011,07,28,00,36,14.40
2011,07,28,00,37,14.40
2011,07,28,00,38,14.40
2011,07,28,00,39,14.40
2011,07,28,00,40,14.30
2011,07,28,00,41,14.30
2011,07,28,00,42,14.30
2011,07,28,00,43,14.30
2011,07,28,00,44,14.20
2011,07,28,00,45,14.20
2011,07,28,00,46,14.20
2011,07,28,00,47,14.20
2011,07,28,00,48,14.10
2011,07,28,00,49,14.10
2011,07,28,00,50,14.10
2011,07,28,00,51,14.00
2011,07,28,00,52,14.00
2011,07,28,00,53,13.90
2011,07,28,00,54,13.90
2011,07,28,00,55,13.90
2011,07,28,00,56,13.90
2011,07,28,00,57,13.90
2011,07,28,00,58,13.90
2011,07,28,00,59,13.90
2011,07,28,01,00,13.80
2011,07,28,01,01,13.80
2011,07,28,01,02,13.80
2011,07,28,01,03,13.80
2011,07,28,01,04,13.90
2011,07,28,01,05,13.90
2011,07,28,01,06,13.80
2011,07,28,01,07,13.80
2011,07,28,01,08,13.80
2011,07,28,01,09,13.80
2011,07,28,01,10,13.80
2011,07,28,01,11,13.80
2011,07,28,01,12,13.80
2011,07,28,01,13,13.70
2011,07,28,01,14,13.70
2011,07,28,01,15,13.70
2011,07,28,01,16,13.70
2011,07,28,01,17,13.70
2011,07,28,01,18,13.70
2011,07,28,01,19,13.70
2011,07,28,01,20,13.70
2011,07,28,01,21,13.70
2011,07,28,01,22,13.70
2011,07,28,01,23,13.70
2011,07,28,01,24,13.70
2011,07,28,01,25,13.70
2011,07,28,01,26,13.70
2011,07,28,01,27,13.70
2011,07,28,01,28,13.70
2011,07,28,01,29,13.70
2011,07,28,01,30,13.70
2011,07,28,01,31,13.70
2011,07,28,01,32,13.70
2011,07,28,01,33,13.70
2011,07,28,01,34,13.60
2011,07,28,01,35,13.60
2011,07,28,01,36,13.60
2011,07,28,01,37,13.60
2011,07,28,01,38,13.60
2011,07,28,01,39,13.50
2011,07,28,01,40,13.50
2011,07,28,01,41,13.50
2011,07,28,01,42,13.50
2011,07,28,01,43,13.40
2011,07,28,01,44,13.40
2011,07,28,01,45,13.40
2011,07,28,01,46,13.40
2011,07,28,01,47,13.40
2011,07,28,01,48,13.30
2011,07,28,01,49,13.30
2011,07,28,01,50,13.30
2011,07,28,01,51,13.30
2011,07,28,01,52,13.30
2011,07,28,01,53,13.30
2011,07,28,01,54,13.30
2011,07,28,01,55,13.30
2011,07,28,01,56,13.30
2011,07,28,01,57,13.20
2011,07,28,01,58,13.20
2011,07,28,01,59,13.20
2011,07,28,02,00,13.20
2011,07,28,02,01,13.20
2011,07,28,02,02,13.20
2011,07,28,02,03,13.20
2011,07,28,02,04,13.20
2011,07,28,02,05,13.20
2011,07,28,02,06,13.20
2011,07,28,02,07,13.10
2011,07,28,02,08,13.10
2011,07,28,02,09,13.10
2011,07,28,02,10,13.10
2011,07,28,02,11,13.10
2011,07,28,02,12,13.10
2011,07,28,02,13,13.10
2011,07,28,02,14,13.10
2011,07,28,02,15,13.10
2011,07,28,02,16,13.10
2011,07,28,02,17,13.00
2011,07,28,02,18,13.00
2011,07,28,02,19,13.00
2011,07,28,02,20,13.00
2011,07,28,02,21,13.00
2011,07,28,02,22,13.00
2011,07,28,02,23,13.00
2011,07,28,02,24,13.00
2011,07,28,02,25,13.00
2011,07,28,02,26,13.00
2011,07,28,02,27,13.00
2011,07,28,02,28,13.00
2011,07,28,02,29,13.00
2011,07,28,02,30,13.00
2011,07,28,02,31,13.00
2011,07,28,02,32,13.00
2011,07,28,02,33,13.00
2011,07,28,02,34,13.00
2011,07,28,02,35,13.00
2011,07,28,02,36,13.00
2011,07,28,02,37,13.00
2011,07,28,02,38,13.00
2011,07,28,02,39,13.00
2011,07,28,02,40,12.90
2011,07,28,02,41,12.90
2011,07,28,02,42,12.90
2011,07,28,02,43,12.90
2011,07,28,02,44,12.90
2011,07,28,02,45,12.90
2011,07,28,02,46,12.90
2011,07,28,02,47,12.90
2011,07,28,02,48,12.90
2011,07,28,02,49,12.90
2011,07,28,02,50,12.80
2011,07,28,02,51,12.80
2011,07,28,02,52,12.80
2011,07,28,02,53,12.80
2011,07,28,02,54,12.80
2011,07,28,02,55,12.80
2011,07,28,02,56,12.80
2011,07,28,02,57,12.80
2011,07,28,02,58,12.80
2011,07,28,02,59,12.80
2011,07,28,03,00,12.80
2011,07,28,03,01,12.80
2011,07,28,03,02,12.80
2011,07,28,03,03,12.80
2011,07,28,03,04,12.80
2011,07,28,03,05,12.70
2011,07,28,03,06,12.70
2011,07,28,03,07,12.70
2011,07,28,03,08,12.70
2011,07,28,03,09,12.70
2011,07,28,03,10,12.70
2011,07,28,03,11,12.70
2011,07,28,03,12,12.70
2011,07,28,03,13,12.70
2011,07,28,03,14,12.70
2011,07,28,03,15,12.70
2011,07,28,03,16,12.70
2011,07,28,03,17,12.70
2011,07,28,03,18,12.70
2011,07,28,03,19,12.70
2011,07,28,03,20,12.70
2011,07,28,03,21,12.70
2011,07,28,03,22,12.70
2011,07,28,03,23,12.70
2011,07,28,03,24,12.70
2011,07,28,03,25,12.70
2011,07,28,03,26,12.80
2011,07,28,03,27,12.80
2011,07,28,03,28,12.80
2011,07,28,03,29,12.80
2011,07,28,03,30,12.80
2011,07,28,03,31,12.70
2011,07,28,03,32,12.70
2011,07,28,03,33,12.70
2011,07,28,03,34,12.70
2011,07,28,03,35,12.70
2011,07,28,03,36,12.60
2011,07,28,03,37,12.60
2011,07,28,03,38,12.60
2011,07,28,03,39,12.60
2011,07,28,03,40,12.60
2011,07,28,03,41,12.50
2011,07,28,03,42,12.50
2011,07,28,03,43,12.50
2011,07,28,03,44,12.50
2011,07,28,03,45,12.50
2011,07,28,03,46,12.50
2011,07,28,03,47,12.40
2011,07,28,03,48,12.40
2011,07,28,03,49,12.40
2011,07,28,03,50,12.40
2011,07,28,03,51,12.40
2011,07,28,03,52,12.40
2011,07,28,03,53,12.40
2011,07,28,03,54,12.40
2011,07,28,03,55,12.40
2011,07,28,03,56,12.40
2011,07,28,03,57,12.40
2011,07,28,03,58,12.40
2011,07,28,03,59,12.40
2011,07,28,04,00,12.40
2011,07,28,04,01,12.40
2011,07,28,04,02,12.40
2011,07,28,04,03,12.40
2011,07,28,04,04,12.40
2011,07,28,04,05,12.40
2011,07,28,04,06,12.40
2011,07,28,04,07,12.40
2011,07,28,04,08,12.40
2011,07,28,04,09,12.40
2011,07,28,04,10,12.40
2011,07,28,04,11,12.40
2011,07,28,04,12,12.40
2011,07,28,04,13,12.40
2011,07,28,04,14,12.40
2011,07,28,04,15,12.40
2011,07,28,04,16,12.40
2011,07,28,04,17,12.40
2011,07,28,04,18,12.40
2011,07,28,04,19,12.40
2011,07,28,04,20,12.30
2011,07,28,04,21,12.40
2011,07,28,04,22,12.40
2011,07,28,04,23,12.40
2011,07,28,04,24,12.40
2011,07,28,04,25,12.30
2011,07,28,04,26,12.30
2011,07,28,04,27,12.30
2011,07,28,04,28,12.30
2011,07,28,04,29,12.30
2011,07,28,04,30,12.30
2011,07,28,04,31,12.30
2011,07,28,04,32,12.30
2011,07,28,04,33,12.30
2011,07,28,04,34,12.30
2011,07,28,04,35,12.20
2011,07,28,04,36,12.20
2011,07,28,04,37,12.20
2011,07,28,04,38,12.20
2011,07,28,04,39,12.20
2011,07,28,04,40,12.20
2011,07,28,04,41,12.20
2011,07,28,04,42,12.20
2011,07,28,04,43,12.20
2011,07,28,04,44,12.10
2011,07,28,04,45,12.10
2011,07,28,04,46,12.10
2011,07,28,04,47,12.10
2011,07,28,04,48,12.10
2011,07,28,04,49,12.10
2011,07,28,04,50,12.10
2011,07,28,04,51,12.10
2011,07,28,04,52,12.10
2011,07,28,04,53,12.10
2011,07,28,04,54,12.10
2011,07,28,04,55,12.10
2011,07,28,04,56,12.10
2011,07,28,04,57,12.10
2011,07,28,04,58,12.10
2011,07,28,04,59,12.10
2011,07,28,05,00,12.00
2011,07,28,05,01,12.00
2011,07,28,05,02,12.00
2011,07,28,05,03,12.00
2011,07,28,05,04,11.90
2011,07,28,05,05,11.90
2011,07,28,05,06,11.90
2011,07,28,05,07,11.90
2011,07,28,05,08,11.90
2011,07,28,05,09,11.90
2011,07,28,05,10,11.90
2011,07,28,05,11,11.90
2011,07,28,05,12,11.90
2011,07,28,05,13,11.90
2011,07,28,05,14,11.90
2011,07,28,05,15,11.90
2011,07,28,05,16,11.90
2011,07,28,05,17,11.90
2011,07,28,05,18,11.90
2011,07,28,05,19,11.90
2011,07,28,05,20,11.90
2011,07,28,05,21,11.90
2011,07,28,05,22,11.90
2011,07,28,05,23,11.90
2011,07,28,05,24,11.90
2011,07,28,05,25,11.90
2011,07,28,05,26,11.90
2011,07,28,05,27,11.90
2011,07,28,05,28,11.90
2011,07,28,05,29,11.90
2011,07,28,05,30,11.90
2011,07,28,05,31,11.80
2011,07,28,05,32,11.80
2011,07,28,05,33,11.80
2011,07,28,05,34,11.80
2011,07,28,05,35,11.80
2011,07,28,05,36,11.80
2011,07,28,05,37,11.80
2011,07,28,05,38,11.80
2011,07,28,05,39,11.80
2011,07,28,05,40,11.80
2011,07,28,05,41,11.80
2011,07,28,05,42,11.80
2011,07,28,05,43,11.80
2011,07,28,05,44,11.80
2011,07,28,05,45,11.80
2011,07,28,05,46,11.80
2011,07,28,05,47,11.80
2011,07,28,05,48,11.80
2011,07,28,05,49,11.70
2011,07,28,05,50,11.70
2011,07,28,05,51,11.70
2011,07,28,05,52,11.70
2011,07,28,05,53,11.70
2011,07,28,05,54,11.70
2011,07,28,05,55,11.70
2011,07,28,05,56,11.70
2011,07,28,05,57,11.70
2011,07,28,05,58,11.70
2011,07,28,05,59,11.70
2011,07,28,06,00,11.80
2011,07,28,06,01,11.80
2011,07,28,06,02,11.80
2011,07,28,06,03,11.80
2011,07,28,06,04,11.80
2011,07,28,06,05,11.80
2011,07,28,06,06,11.90
2011,07,28,06,07,11.90
2011,07,28,06,08,11.90
2011,07,28,06,09,11.90
2011,07,28,06,10,11.90
2011,07,28,06,11,11.90
2011,07,28,06,12,11.90
2011,07,28,06,13,11.90
2011,07,28,06,14,11.80
2011,07,28,06,15,11.80
2011,07,28,06,16,11.80
2011,07,28,06,17,11.80
2011,07,28,06,18,11.70
2011,07,28,06,19,11.70
2011,07,28,06,20,11.70
2011,07,28,06,21,11.70
2011,07,28,06,22,11.70
2011,07,28,06,23,11.70
2011,07,28,06,24,11.70
2011,07,28,06,25,11.70
2011,07,28,06,26,11.70
2011,07,28,06,27,11.70
2011,07,28,06,28,11.80
2011,07,28,06,29,11.80
2011,07,28,06,30,11.80
2011,07,28,06,31,11.80
2011,07,28,06,32,11.80
2011,07,28,06,33,11.80
2011,07,28,06,34,11.90
2011,07,28,06,35,11.90
2011,07,28,06,36,11.90
2011,07,28,06,37,11.90
2011,07,28,06,38,11.90
2011,07,28,06,39,11.80
2011,07,28,06,40,11.80
2011,07,28,06,41,11.80
2011,07,28,06,42,11.80
2011,07,28,06,43,11.80
2011,07,28,06,44,11.80
2011,07,28,06,45,11.80
2011,07,28,06,46,11.80
2011,07,28,06,47,11.80
2011,07,28,06,48,11.80
2011,07,28,06,49,11.80
2011,07,28,06,50,11.80
2011,07,28,06,51,11.80
2011,07,28,06,52,11.80
2011,07,28,06,53,11.80
2011,07,28,06,54,11.80
2011,07,28,06,55,11.80
2011,07,28,06,56,11.80
2011,07,28,06,57,11.80
2011,07,28,06,58,11.90
2011,07,28,06,59,11.90
2011,07,28,07,00,11.90
2011,07,28,07,01,11.90
2011,07,28,07,02,11.90
2011,07,28,07,03,11.90
2011,07,28,07,04,11.80
2011,07,28,07,05,11.80
2011,07,28,07,06,11.80
2011,07,28,07,07,11.80
2011,07,28,07,08,11.80
2011,07,28,07,09,11.90
2011,07,28,07,10,11.90
2011,07,28,07,11,11.90
2011,07,28,07,12,11.90
2011,07,28,07,13,11.90
2011,07,28,07,14,11.90
2011,07,28,07,15,11.90
2011,07,28,07,16,11.90
2011,07,28,07,17,11.90
2011,07,28,07,18,12.00
2011,07,28,07,19,12.00
2011,07,28,07,20,12.10
2011,07,28,07,21,12.10
2011,07,28,07,22,12.10
2011,07,28,07,23,12.20
2011,07,28,07,24,12.20
2011,07,28,07,25,12.20
2011,07,28,07,26,12.20
2011,07,28,07,27,12.20
2011,07,28,07,28,12.20
2011,07,28,07,29,12.30
2011,07,28,07,30,12.30
2011,07,28,07,31,12.30
2011,07,28,07,32,12.30
2011,07,28,07,33,12.30
2011,07,28,07,34,12.30
2011,07,28,07,35,12.30
2011,07,28,07,36,12.30
2011,07,28,07,37,12.40
2011,07,28,07,38,12.40
2011,07,28,07,39,12.40
2011,07,28,07,40,12.40
2011,07,28,07,41,12.40
2011,07,28,07,42,12.50
2011,07,28,07,43,12.50
2011,07,28,07,44,12.60
2011,07,28,07,45,12.60
2011,07,28,07,46,12.70
2011,07,28,07,47,12.70
2011,07,28,07,48,12.80
2011,07,28,07,49,12.80
2011,07,28,07,50,12.80
2011,07,28,07,51,12.90
2011,07,28,07,52,12.90
2011,07,28,07,53,12.90
2011,07,28,07,54,12.90
2011,07,28,07,55,13.00
2011,07,28,07,56,13.00
2011,07,28,07,57,13.00
2011,07,28,07,58,13.00
2011,07,28,07,59,13.10
2011,07,28,08,00,13.10
2011,07,28,08,01,13.10
2011,07,28,08,02,13.10
2011,07,28,08,03,13.10
2011,07,28,08,04,13.20
2011,07,28,08,05,13.20
2011,07,28,08,06,13.20
2011,07,28,08,07,13.20
2011,07,28,08,08,13.20
2011,07,28,08,09,13.20
2011,07,28,08,10,13.30
2011,07,28,08,11,13.30
2011,07,28,08,12,13.30
2011,07,28,08,13,13.30
2011,07,28,08,14,13.40
2011,07,28,08,15,13.40
2011,07,28,08,16,13.40
2011,07,28,08,17,13.50
2011,07,28,08,18,13.50
2011,07,28,08,19,13.60
2011,07,28,08,20,13.60
2011,07,28,08,21,13.60
2011,07,28,08,22,13.70
2011,07,28,08,23,13.70
2011,07,28,08,24,13.80
2011,07,28,08,25,13.80
2011,07,28,08,26,13.80
2011,07,28,08,27,13.90
2011,07,28,08,28,13.90
2011,07,28,08,29,14.00
2011,07,28,08,30,14.00
2011,07,28,08,31,14.10
2011,07,28,08,32,14.10
2011,07,28,08,33,14.20
2011,07,28,08,34,14.30
2011,07,28,08,35,14.30
2011,07,28,08,36,14.40
2011,07,28,08,37,14.50
2011,07,28,08,38,14.50
2011,07,28,08,39,14.60
2011,07,28,08,40,14.70
2011,07,28,08,41,14.70
2011,07,28,08,42,14.70
2011,07,28,08,43,14.80
2011,07,28,08,44,14.90
2011,07,28,08,45,14.90
2011,07,28,08,46,15.00
2011,07,28,08,47,15.00
2011,07,28,08,48,15.00
2011,07,28,08,49,15.00
2011,07,28,08,50,15.10
2011,07,28,08,51,15.20
2011,07,28,08,52,15.30
2011,07,28,08,53,15.30
2011,07,28,08,54,15.40
2011,07,28,08,55,15.50
2011,07,28,08,56,15.60
2011,07,28,08,57,15.60
2011,07,28,08,58,15.70
2011,07,28,08,59,15.80
2011,07,28,09,00,15.80
2011,07,28,09,01,15.90
2011,07,28,09,02,16.10
2011,07,28,09,03,16.10
2011,07,28,09,04,16.20
2011,07,28,09,05,16.30
2011,07,28,09,06,16.30
2011,07,28,09,07,16.40
2011,07,28,09,08,16.40
2011,07,28,09,09,16.40
2011,07,28,09,10,16.50
2011,07,28,09,11,16.50
2011,07,28,09,12,16.60
2011,07,28,09,13,16.60
2011,07,28,09,14,16.70
2011,07,28,09,15,16.70
2011,07,28,09,16,16.80
2011,07,28,09,17,16.80
2011,07,28,09,18,16.90
2011,07,28,09,19,16.90
2011,07,28,09,20,17.00
2011,07,28,09,21,17.00
2011,07,28,09,22,17.10
2011,07,28,09,23,17.10
2011,07,28,09,24,17.20
2011,07,28,09,25,17.30
2011,07,28,09,26,17.30
2011,07,28,09,27,17.40
2011,07,28,09,28,17.40
2011,07,28,09,29,17.50
2011,07,28,09,30,17.50
2011,07,28,09,31,17.50
2011,07,28,09,32,17.60
2011,07,28,09,33,17.60
2011,07,28,09,34,17.60
2011,07,28,09,35,17.70
2011,07,28,09,36,17.70
2011,07,28,09,37,17.70
2011,07,28,09,38,17.80
2011,07,28,09,39,17.90
2011,07,28,09,40,18.00
2011,07,28,09,41,18.10
2011,07,28,09,42,18.10
2011,07,28,09,43,18.20
2011,07,28,09,44,18.30
2011,07,28,09,45,18.30
2011,07,28,09,46,18.40
2011,07,28,09,47,18.50
2011,07,28,09,48,18.60
2011,07,28,09,49,18.70
2011,07,28,09,50,18.80
2011,07,28,09,51,18.90
2011,07,28,09,52,18.90
2011,07,28,09,53,18.90
2011,07,28,09,54,19.00
2011,07,28,09,55,19.10
2011,07,28,09,56,19.20
2011,07,28,09,57,19.30
2011,07,28,09,58,19.30
2011,07,28,09,59,19.40
2011,07,28,10,00,19.50
2011,07,28,10,01,19.60
2011,07,28,10,02,19.60
2011,07,28,10,03,19.70
2011,07,28,10,04,19.70
2011,07,28,10,05,19.70
2011,07,28,10,06,19.80
2011,07,28,10,07,19.80
2011,07,28,10,08,19.90
2011,07,28,10,09,19.90
2011,07,28,10,10,19.90
2011,07,28,10,11,19.90
2011,07,28,10,12,20.00
2011,07,28,10,13,20.00
2011,07,28,10,14,20.10
2011,07,28,10,15,20.10
2011,07,28,10,16,20.00
2011,07,28,10,17,20.00
2011,07,28,10,18,19.90
2011,07,28,10,19,19.90
2011,07,28,10,20,20.00
2011,07,28,10,21,20.00
2011,07,28,10,22,20.10
2011,07,28,10,23,20.10
2011,07,28,10,24,20.10
2011,07,28,10,25,20.10
2011,07,28,10,26,20.20
2011,07,28,10,27,20.10
2011,07,28,10,28,20.10
2011,07,28,10,29,20.10
2011,07,28,10,30,20.10
2011,07,28,10,31,20.10
2011,07,28,10,32,20.10
2011,07,28,10,33,20.20
2011,07,28,10,34,20.10
2011,07,28,10,35,20.10
2011,07,28,10,36,20.10
2011,07,28,10,37,20.10
2011,07,28,10,38,20.10
2011,07,28,10,39,20.10
2011,07,28,10,40,20.10
2011,07,28,10,41,20.20
2011,07,28,10,42,20.20
2011,07,28,10,43,20.20
2011,07,28,10,44,20.30
2011,07,28,10,45,20.30
2011,07,28,10,46,20.30
2011,07,28,10,47,20.30
2011,07,28,10,48,20.30
2011,07,28,10,49,20.20
2011,07,28,10,50,20.20
2011,07,28,10,51,20.10
2011,07,28,10,52,20.00
2011,07,28,10,53,20.00
2011,07,28,10,54,19.90
2011,07,28,10,55,19.90
2011,07,28,10,56,19.90
2011,07,28,10,57,19.90
2011,07,28,10,58,19.90
2011,07,28,10,59,19.90
2011,07,28,11,00,20.00
2011,07,28,11,01,20.00
2011,07,28,11,02,20.10
2011,07,28,11,03,20.20
2011,07,28,11,04,20.20
2011,07,28,11,05,20.20
2011,07,28,11,06,20.20
2011,07,28,11,07,20.20
2011,07,28,11,08,20.20
2011,07,28,11,09,20.20
2011,07,28,11,10,20.20
2011,07,28,11,11,20.20
2011,07,28,11,12,20.30
2011,07,28,11,13,20.30
2011,07,28,11,14,20.40
2011,07,28,11,15,20.40
2011,07,28,11,16,20.50
2011,07,28,11,17,20.50
2011,07,28,11,18,20.60
2011,07,28,11,19,20.70
2011,07,28,11,20,20.80
2011,07,28,11,21,20.80
2011,07,28,11,22,20.90
2011,07,28,11,23,20.90
2011,07,28,11,24,20.90
2011,07,28,11,25,21.00
2011,07,28,11,26,21.10
2011,07,28,11,27,21.10
2011,07,28,11,28,21.20
2011,07,28,11,29,21.20
2011,07,28,11,30,21.20
2011,07,28,11,31,21.20
2011,07,28,11,32,21.20
2011,07,28,11,33,21.20
2011,07,28,11,34,21.20
2011,07,28,11,35,21.20
2011,07,28,11,36,21.10
2011,07,28,11,37,21.10
2011,07,28,11,38,21.10
2011,07,28,11,39,21.10
2011,07,28,11,40,21.10
2011,07,28,11,41,21.10
2011,07,28,11,42,21.00
2011,07,28,11,43,21.00
2011,07,28,11,44,20.90
2011,07,28,11,45,20.80
2011,07,28,11,46,20.80
2011,07,28,11,47,20.80
2011,07,28,11,48,20.80
2011,07,28,11,49,20.80
2011,07,28,11,50,20.90
2011,07,28,11,51,21.00
2011,07,28,11,52,21.10
2011,07,28,11,53,21.10
2011,07,28,11,54,21.20
2011,07,28,11,55,21.20
2011,07,28,11,56,21.20
2011,07,28,11,57,21.20
2011,07,28,11,58,21.20
2011,07,28,11,59,21.20
2011,07,28,12,00,21.20
2011,07,28,12,01,21.20
2011,07,28,12,02,21.20
2011,07,28,12,03,21.20
2011,07,28,12,04,21.20
2011,07,28,12,05,21.30
2011,07,28,12,06,21.30
2011,07,28,12,07,21.40
2011,07,28,12,08,21.40
2011,07,28,12,09,21.40
2011,07,28,12,10,21.50
2011,07,28,12,11,21.60
2011,07,28,12,12,21.60
2011,07,28,12,13,21.70
2011,07,28,12,14,21.80
2011,07,28,12,15,21.80
2011,07,28,12,16,21.80
2011,07,28,12,17,21.80
2011,07,28,12,18,21.80
2011,07,28,12,19,21.80
2011,07,28,12,20,21.80
2011,07,28,12,21,21.90
2011,07,28,12,22,21.90
2011,07,28,12,23,21.90
2011,07,28,12,24,21.90
2011,07,28,12,25,21.90
2011,07,28,12,26,21.90
2011,07,28,12,27,21.90
2011,07,28,12,28,21.90
2011,07,28,12,29,21.90
2011,07,28,12,30,21.90
2011,07,28,12,31,21.90
2011,07,28,12,32,21.80
2011,07,28,12,33,21.70
2011,07,28,12,34,21.60
2011,07,28,12,35,21.50
2011,07,28,12,36,21.50
2011,07,28,12,37,21.50
2011,07,28,12,38,21.60
2011,07,28,12,39,21.60
2011,07,28,12,40,21.60
2011,07,28,12,41,21.70
2011,07,28,12,42,21.70
2011,07,28,12,43,21.70
2011,07,28,12,44,21.60
2011,07,28,12,45,21.60
2011,07,28,12,46,21.50
2011,07,28,12,47,21.50
2011,07,28,12,48,21.40
2011,07,28,12,49,21.40
2011,07,28,12,50,21.30
2011,07,28,12,51,21.30
2011,07,28,12,52,21.30
2011,07,28,12,53,21.20
2011,07,28,12,54,21.30
2011,07,28,12,55,21.40
2011,07,28,12,56,21.50
2011,07,28,12,57,21.60
2011,07,28,12,58,21.70
2011,07,28,12,59,21.80
2011,07,28,13,00,21.90
2011,07,28,13,01,22.10
2011,07,28,13,02,22.20
2011,07,28,13,03,22.20
2011,07,28,13,04,22.30
2011,07,28,13,05,22.30
2011,07,28,13,06,22.30
2011,07,28,13,07,22.30
2011,07,28,13,08,22.30
2011,07,28,13,09,22.40
2011,07,28,13,10,22.50
2011,07,28,13,11,22.50
2011,07,28,13,12,22.60
2011,07,28,13,13,22.60
2011,07,28,13,14,22.70
2011,07,28,13,15,22.70
2011,07,28,13,16,22.70
2011,07,28,13,17,22.80
2011,07,28,13,18,22.80
2011,07,28,13,19,22.80
2011,07,28,13,20,22.90
2011,07,28,13,21,23.00
2011,07,28,13,22,23.10
2011,07,28,13,23,23.20
2011,07,28,13,24,23.30
2011,07,28,13,25,23.40
2011,07,28,13,26,23.40
2011,07,28,13,27,23.50
2011,07,28,13,28,23.50
2011,07,28,13,29,23.60
2011,07,28,13,30,23.50
2011,07,28,13,31,23.40
2011,07,28,13,32,23.30
2011,07,28,13,33,23.20
2011,07,28,13,34,23.00
2011,07,28,13,35,23.00
2011,07,28,13,36,22.90
2011,07,28,13,37,22.80
2011,07,28,13,38,22.80
2011,07,28,13,39,22.70
2011,07,28,13,40,22.60
2011,07,28,13,41,22.60
2011,07,28,13,42,22.70
2011,07,28,13,43,22.70
2011,07,28,13,44,22.60
2011,07,28,13,45,22.50
2011,07,28,13,46,22.50
2011,07,28,13,47,22.50
2011,07,28,13,48,22.50
2011,07,28,13,49,22.50
2011,07,28,13,50,22.50
2011,07,28,13,51,22.60
2011,07,28,13,52,22.70
2011,07,28,13,53,22.80
2011,07,28,13,54,22.90
2011,07,28,13,55,22.90
2011,07,28,13,56,22.90
2011,07,28,13,57,22.90
2011,07,28,13,58,23.00
2011,07,28,13,59,23.00
2011,07,28,14,00,23.10
2011,07,28,14,01,23.10
2011,07,28,14,02,23.10
2011,07,28,14,03,23.10
2011,07,28,14,04,23.10
2011,07,28,14,05,23.20
2011,07,28,14,06,23.20
2011,07,28,14,07,23.20
2011,07,28,14,08,23.20
2011,07,28,14,09,23.30
2011,07,28,14,10,23.30
2011,07,28,14,11,23.20
2011,07,28,14,12,23.20
2011,07,28,14,13,23.20
2011,07,28,14,14,23.30
2011,07,28,14,15,23.30
2011,07,28,14,16,23.30
2011,07,28,14,17,23.30
2011,07,28,14,18,23.30
2011,07,28,14,19,23.30
2011,07,28,14,20,23.30
2011,07,28,14,21,23.20
2011,07,28,14,22,23.20
2011,07,28,14,23,23.10
2011,07,28,14,24,23.10
2011,07,28,14,25,23.10
2011,07,28,14,26,23.10
2011,07,28,14,27,23.10
2011,07,28,14,28,23.00
2011,07,28,14,29,22.90
2011,07,28,14,30,22.80
2011,07,28,14,31,22.70
2011,07,28,14,32,22.60
2011,07,28,14,33,22.60
2011,07,28,14,34,22.60
2011,07,28,14,35,22.60
2011,07,28,14,36,22.60
2011,07,28,14,37,22.60
2011,07,28,14,38,22.60
2011,07,28,14,39,22.70
2011,07,28,14,40,22.80
2011,07,28,14,41,22.80
2011,07,28,14,42,22.80
2011,07,28,14,43,22.80
2011,07,28,14,44,22.90
2011,07,28,14,45,22.90
2011,07,28,14,46,22.90
2011,07,28,14,47,22.80
2011,07,28,14,48,22.80
2011,07,28,14,49,22.80
2011,07,28,14,50,22.80
2011,07,28,14,51,22.80
2011,07,28,14,52,22.80
2011,07,28,14,53,22.90
2011,07,28,14,54,23.10
2011,07,28,14,55,23.20
2011,07,28,14,56,23.30
2011,07,28,14,57,23.40
2011,07,28,14,58,23.50
2011,07,28,14,59,23.70
2011,07,28,15,00,23.80
2011,07,28,15,01,23.80
2011,07,28,15,02,23.90
2011,07,28,15,03,24.00
2011,07,28,15,04,24.00
2011,07,28,15,05,23.90
2011,07,28,15,06,23.90
2011,07,28,15,07,23.80
2011,07,28,15,08,23.70
2011,07,28,15,09,23.50
2011,07,28,15,10,23.40
2011,07,28,15,11,23.30
2011,07,28,15,12,23.30
2011,07,28,15,13,23.20
2011,07,28,15,14,23.20
2011,07,28,15,15,23.10
2011,07,28,15,16,23.10
2011,07,28,15,17,23.10
2011,07,28,15,18,23.10
2011,07,28,15,19,23.10
2011,07,28,15,20,23.20
2011,07,28,15,21,23.20
2011,07,28,15,22,23.10
2011,07,28,15,23,23.10
2011,07,28,15,24,23.00
2011,07,28,15,25,23.00
2011,07,28,15,26,22.90
2011,07,28,15,27,22.90
2011,07,28,15,28,22.90
2011,07,28,15,29,23.00
2011,07,28,15,30,23.00
2011,07,28,15,31,22.90
2011,07,28,15,32,22.90
2011,07,28,15,33,22.90
2011,07,28,15,34,23.00
2011,07,28,15,35,23.10
2011,07,28,15,36,23.10
2011,07,28,15,37,23.30
2011,07,28,15,38,23.40
2011,07,28,15,39,23.50
2011,07,28,15,40,23.50
2011,07,28,15,41,23.60
2011,07,28,15,42,23.60
2011,07,28,15,43,23.70
2011,07,28,15,44,23.80
2011,07,28,15,45,23.80
2011,07,28,15,46,23.80
2011,07,28,15,47,23.80
2011,07,28,15,48,23.90
2011,07,28,15,49,23.90
2011,07,28,15,50,24.00
2011,07,28,15,51,24.00
2011,07,28,15,52,24.00
2011,07,28,15,53,24.10
2011,07,28,15,54,24.10
2011,07,28,15,55,24.00
2011,07,28,15,56,23.90
2011,07,28,15,57,23.70
2011,07,28,15,58,23.50
2011,07,28,15,59,23.40
2011,07,28,16,00,23.30
2011,07,28,16,01,23.20
2011,07,28,16,02,23.10
2011,07,28,16,03,23.10
2011,07,28,16,04,22.90
2011,07,28,16,05,22.90
2011,07,28,16,06,22.90
2011,07,28,16,07,22.90
2011,07,28,16,08,22.90
2011,07,28,16,09,22.90
2011,07,28,16,10,22.90
2011,07,28,16,11,22.90
2011,07,28,16,12,22.90
2011,07,28,16,13,23.00
2011,07,28,16,14,22.90
2011,07,28,16,15,22.90
2011,07,28,16,16,22.90
2011,07,28,16,17,22.90
2011,07,28,16,18,22.90
2011,07,28,16,19,22.90
2011,07,28,16,20,23.00
2011,07,28,16,21,23.10
2011,07,28,16,22,23.10
2011,07,28,16,23,23.20
2011,07,28,16,24,23.30
2011,07,28,16,25,23.30
2011,07,28,16,26,23.40
2011,07,28,16,27,23.50
2011,07,28,16,28,23.50
2011,07,28,16,29,23.60
2011,07,28,16,30,23.70
2011,07,28,16,31,23.70
2011,07,28,16,32,23.80
2011,07,28,16,33,23.80
2011,07,28,16,34,23.80
2011,07,28,16,35,23.80
2011,07,28,16,36,23.80
2011,07,28,16,37,23.70
2011,07,28,16,38,23.70
2011,07,28,16,39,23.60
2011,07,28,16,40,23.50
2011,07,28,16,41,23.50
2011,07,28,16,42,23.40
2011,07,28,16,43,23.40
2011,07,28,16,44,23.40
2011,07,28,16,45,23.50
2011,07,28,16,46,23.60
2011,07,28,16,47,23.60
2011,07,28,16,48,23.60
2011,07,28,16,49,23.60
2011,07,28,16,50,23.70
2011,07,28,16,51,23.70
2011,07,28,16,52,23.70
2011,07,28,16,53,23.70
2011,07,28,16,54,23.70
2011,07,28,16,55,23.70
2011,07,28,16,56,23.70
2011,07,28,16,57,23.80
2011,07,28,16,58,23.80
2011,07,28,16,59,23.80
2011,07,28,17,00,23.90
2011,07,28,17,01,23.90
2011,07,28,17,02,24.00
2011,07,28,17,03,24.10
2011,07,28,17,04,24.20
2011,07,28,17,05,24.20
2011,07,28,17,06,24.10
2011,07,28,17,07,24.00
2011,07,28,17,08,24.00
2011,07,28,17,09,23.90
2011,07,28,17,10,23.90
2011,07,28,17,11,23.90
2011,07,28,17,12,23.90
2011,07,28,17,13,23.90
2011,07,28,17,14,23.90
2011,07,28,17,15,24.00
2011,07,28,17,16,24.00
2011,07,28,17,17,23.90
2011,07,28,17,18,23.90
2011,07,28,17,19,23.90